Location: Unspecified
(0.0000°N, 0.0000°E)
Time: 01:21:04
(UTC+02:00)

JASON 3 - Pass Details

Date: 05 October 2021
Orbit: 1332 x 1343 km, 66.0° (Epoch: 18 October)

Event Time Altitude Azimuth Distance (km) Brightness Sun altitude
Rises 21:00:09 0° 302° (WNW) 4,345 ? -17.9°
Reaches altitude 10° 21:04:32 10° 281° (W) 3,373 ? -19.0°
Maximum altitude 21:08:50 15° 249° (WSW) 2,988 ? -20.1°
Drops below altitude 10° 21:13:08 10° 216° (SW) 3,373 ? -21.1°
Sets 21:17:36 0° 194° (SSW) 4,346 ? -22.2°
